Location: UMBC
(39.2555°N, 76.7093°W)
Time: 01:46:20
(UTC+01:00)

Amateur Radio Satellites - All Passes

Search period start: 06 December 2016 01:16
Search period end: 07 December 2016 01:16
Location: UMBC, 39.2555°N, 76.7093°W

Satellite Date Start Highest point End Downlink Frequencies (MHz)
Time Altitude Azimuth
ISS 06 Dec 01:16:22 01:17:02 10° 353° (N) 01:17:43 145.825
PCSat 06 Dec 01:19:44 01:23:05 16° 44° (NE) 01:26:26 145.827
CINEMA 3 06 Dec 01:20:16 01:24:55 43° 262° (W) 01:29:43 145.822/145.860
SO-50 06 Dec 01:27:32 01:31:44 31° 114° (ESE) 01:35:54 436.795
Cosmos 2504 06 Dec 01:32:14 01:40:12 55° 90° (E) 01:48:41 435.465 / 435.565
ZACube-1 06 Dec 01:32:21 01:36:08 26° 69° (ENE) 01:39:53 437.345
Cosmos 2491 06 Dec 01:36:00 01:43:32 34° 275° (W) 01:51:03 435.465 / 435.565
CUTE 1.7 + AOD 2 06 Dec 01:37:33 01:41:32 40° 262° (W) 01:45:31 437.475
FUNcube-1 06 Dec 01:40:13 01:44:07 29° 70° (ENE) 01:48:00 145.935
CUBEBUG 2 06 Dec 01:41:35 01:46:20 85° 79° (E) 01:51:06 437.445
STRAND 1 06 Dec 01:52:35 01:57:39 65° 286° (WNW) 02:02:40 437.568
CANX-2 06 Dec 01:56:18 01:59:35 22° 265° (W) 02:02:53 2200.000
RS-15 06 Dec 01:59:36 02:00:26 10° 268° (W) 02:01:17 29.354- 29.394
YUBILEINY 06 Dec 02:00:56 02:09:22 54° 283° (WNW) 02:17:55 435.215
AAUSAT CUBESAT 2 06 Dec 02:03:24 02:07:27 60° 260° (W) 02:11:31 437.432
Oscar 11 06 Dec 02:11:08 02:15:23 60° 74° (ENE) 02:19:38 145.826/435.025
SEEDS 06 Dec 02:23:08 02:26:06 19° 266° (W) 02:29:04 437.485
UWE-3 06 Dec 02:25:26 02:29:59 50° 261° (W) 02:34:30 435.000/436.395/437.385
HO-68 06 Dec 02:30:13 02:35:40 23° 267° (W) 02:41:09 435.675
CUSAT 1 06 Dec 02:32:48 02:36:30 87° 261° (W) 02:41:23 437.405
COMPASS 1 06 Dec 02:34:18 02:37:24 21° 266° (W) 02:40:31 437.405
AIST 1 06 Dec 02:42:59 02:46:34 25° 285° (WNW) 02:50:12
ISS 06 Dec 02:53:14 02:54:44 12° 14° (NNE) 02:56:15 145.825
PCSat 06 Dec 03:01:43 03:07:10 83° 244° (WSW) 03:12:35 145.827
HUMSAT D 06 Dec 03:04:08 03:08:07 43° 73° (ENE) 03:12:06 437.325/437.525
DELFI C3 06 Dec 03:06:06 03:10:01 89° 258° (WSW) 03:13:58 145.870
SO-50 06 Dec 03:07:55 03:12:10 31° 310° (NW) 03:16:21 436.795
ZACube-1 06 Dec 03:08:23 03:12:18 28° 264° (W) 03:16:12 437.345
PRISM 06 Dec 03:10:26 03:14:33 60° 101° (ESE) 03:18:40 437.425
DANDE 06 Dec 03:14:48 03:17:37 58° 81° (E) 03:21:02 436.750
FUNcube-1 06 Dec 03:16:34 03:20:19 25° 265° (W) 03:24:02 145.935
Cosmos 2504 06 Dec 03:26:43 03:33:58 32° 290° (WNW) 03:41:37 435.465 / 435.565
UNISAT 6 06 Dec 03:35:26 03:39:01 24° 95° (E) 03:42:30 437.425
Oscar 11 06 Dec 03:50:44 03:51:52 11° 270° (W) 03:53:00 145.826/435.025
TIGRISAT 06 Dec 04:05:04 04:09:20 48° 99° (E) 04:13:29 435.000
ANTELSAT 06 Dec 04:06:23 04:10:42 53° 100° (E) 04:14:54 437.575/2403.000
ESTCUBE 1 06 Dec 04:10:52 04:14:53 34° 71° (ENE) 04:18:56 437.505/2401.250
AISAT 06 Dec 04:20:05 04:23:12 19° 66° (ENE) 04:26:21 437.250
ISS 06 Dec 04:28:47 04:31:57 41° 33° (NNE) 04:35:05 145.825
50 SAT 06 Dec 04:33:12 04:35:21 16° 68° (ENE) 04:37:30 437.505
QB50P1 06 Dec 04:38:49 04:40:23 12° 91° (E) 04:41:57 145.935-145.965
Cosmos 2499 06 Dec 04:41:02 04:42:24 10° 72° (ENE) 04:43:47 435.465 / 435.565
HUMSAT D 06 Dec 04:41:33 04:43:55 15° 268° (W) 04:46:16 437.325/437.525
DUCHIFAT 1 06 Dec 04:42:33 04:43:34 11° 90° (E) 04:44:35 145.980
CUBEBUG 1 06 Dec 04:45:52 04:50:04 49° 73° (ENE) 04:54:19 437.445
PRISM 06 Dec 04:47:56 04:49:19 11° 297° (WNW) 04:50:41 437.425
GONETS M04 06 Dec 04:49:27 04:51:22 11° 74° (ENE) 04:53:16
VELOX 1 06 Dec 04:55:47 04:59:57 43° 72° (ENE) 05:04:08 145.980
POPSAT HIP 1 06 Dec 04:58:55 05:02:05 20° 94° (E) 05:05:13 437.405
DX 1 06 Dec 05:10:34 05:14:27 33° 70° (ENE) 05:18:23 434.975-435.025
UNISAT 6 06 Dec 05:11:57 05:15:42 28° 291° (WNW) 05:19:21 437.425
UKube-1 06 Dec 05:18:32 05:22:17 30° 70° (ENE) 05:26:04 .
SPROUT 06 Dec 05:31:18 05:35:34 69° 76° (ENE) 05:39:53 437.525
JAS-2 06 Dec 05:37:07 05:42:19 79° 103° (ESE) 05:47:48 435.910
BUGSAT 1 06 Dec 05:39:14 05:42:12 19° 94° (E) 05:45:07 437.445
TIGRISAT 06 Dec 05:43:07 05:45:35 15° 296° (WNW) 05:48:00 435.000
ANTELSAT 06 Dec 05:44:44 05:46:54 14° 296° (WNW) 05:49:04 437.575/2403.000
ESTCUBE 1 06 Dec 05:48:24 05:51:45 21° 266° (W) 05:55:07 437.505/2401.250
NANOSAT C BR1 06 Dec 05:52:59 05:57:14 84° 100° (E) 06:01:26 145.865
AISAT 06 Dec 05:55:16 05:59:22 38° 262° (W) 06:03:31 437.250
QB50P2 06 Dec 05:58:32 06:02:47 72° 285° (WNW) 06:06:59 145.880/145.840
POLYITAN 1 06 Dec 05:59:05 06:03:20 76° 284° (WNW) 06:07:31 437.675
50 SAT 06 Dec 06:05:23 06:08:25 27° 263° (W) 06:11:28 437.505
ISS 06 Dec 06:05:44 06:08:15 20° 228° (SW) 06:10:45 145.825
QB50P1 06 Dec 06:12:19 06:16:28 53° 286° (WNW) 06:20:34 145.935-145.965
DUCHIFAT 1 06 Dec 06:15:27 06:19:36 58° 286° (WNW) 06:23:42 145.980
CUBEBUG 1 06 Dec 06:24:25 06:26:38 14° 269° (W) 06:28:50 437.445
Cosmos 2499 06 Dec 06:25:15 06:33:37 64° 91° (E) 06:42:21 435.465 / 435.565
Oscar 19 06 Dec 06:26:33 06:29:42 16° 92° (E) 06:32:50 437.125/150
O/OREOS (USA 219) 06 Dec 06:27:53 06:28:17 10° 51° (NE) 06:28:41 437.305
AUBIESAT-1 06 Dec 06:28:11 06:30:12 13° 57° (ENE) 06:32:17 437.475
VELOX 1 06 Dec 06:33:51 06:36:35 16° 267° (W) 06:39:21 145.980
POPSAT HIP 1 06 Dec 06:34:08 06:37:53 31° 290° (WNW) 06:41:36 437.405
GONETS M04 06 Dec 06:37:48 06:46:25 69° 93° (E) 06:55:03
M-CUBED/EXP-1 PRIME 06 Dec 06:38:54 06:42:00 21° 61° (ENE) 06:45:16 437.505
PHONESAT 2.4 06 Dec 06:39:58 06:42:31 42° 159° (SSE) 06:45:03 2401.200-2431.200
SWISSCUBE 06 Dec 06:41:19 06:44:15 16° 64° (ENE) 06:47:09 437.505
BEESAT 06 Dec 06:45:26 06:48:20 16° 63° (ENE) 06:51:12 436.000
DX 1 06 Dec 06:47:28 06:50:42 20° 266° (W) 06:53:57 434.975-435.025
TISAT 1 06 Dec 06:54:12 06:58:26 85° 255° (WSW) 07:02:44 437.305
UKube-1 06 Dec 06:54:57 06:58:19 22° 265° (W) 07:01:41 .
AO-85 06 Dec 07:10:54 07:15:04 27° 113° (ESE) 07:19:01 145.980
ITUPSAT 1 06 Dec 07:11:32 07:15:36 28° 68° (ENE) 07:19:39 437.325
BUGSAT 1 06 Dec 07:13:52 07:17:38 33° 289° (WNW) 07:21:21 437.445
JAS-2 06 Dec 07:24:53 07:26:48 12° 300° (WNW) 07:28:44 435.910
MOZHAYETS 4 06 Dec 07:53:17 07:56:19 18° 66° (ENE) 07:59:21
AO-7 06 Dec 07:58:07 08:00:15 11° 88° (E) 08:02:22 29.400- 29.500
Gurwin Techsat 1B 06 Dec 07:58:25 08:03:43 63° 102° (ESE) 08:08:58 435.225
AUBIESAT-1 06 Dec 07:59:58 08:04:00 61° 255° (WSW) 08:08:21 437.475
O/OREOS (USA 219) 06 Dec 08:03:50 08:08:20 86° 249° (WSW) 08:12:48 437.305
Oscar 19 06 Dec 08:04:16 08:09:21 58° 288° (WNW) 08:14:26 437.125/150
M-CUBED/EXP-1 PRIME 06 Dec 08:12:29 08:16:12 35° 259° (W) 08:20:11 437.505
PHONESAT 2.4 06 Dec 08:15:03 08:17:42 66° 354° (N) 08:20:21 2401.200-2431.200
SWISSCUBE 06 Dec 08:16:55 08:21:35 53° 260° (W) 08:26:15 437.505
Cosmos 2499 06 Dec 08:20:16 08:27:21 28° 292° (WNW) 08:34:42 435.465 / 435.565
BEESAT 06 Dec 08:20:58 08:25:38 54° 259° (W) 08:30:20 436.000
KKS-1 06 Dec 08:25:12 08:27:59 16° 64° (ENE) 08:30:45 437.445
ITAMSAT 1 06 Dec 08:32:34 08:37:01 28° 96° (E) 08:41:27 435.822/435.867
GONETS M04 06 Dec 08:37:11 08:43:58 25° 293° (WNW) 08:50:47
ITUPSAT 1 06 Dec 08:49:11 08:53:20 29° 264° (W) 08:57:28 437.325
AO-85 06 Dec 08:50:53 08:55:23 35° 307° (NW) 08:59:37 145.980
MOZHAYETS 4 06 Dec 09:28:43 09:33:07 44° 261° (W) 09:37:31
CUBESAT XI-V 06 Dec 09:31:35 09:35:23 26° 69° (ENE) 09:39:13 437.345
Gurwin Techsat 1B 06 Dec 09:39:50 09:43:06 17° 298° (WNW) 09:46:22 435.225
AO-7 06 Dec 09:45:58 09:54:21 69° 105° (ESE) 10:02:41 29.400- 29.500
PHONESAT 2.4 06 Dec 09:50:23 09:53:02 87° 18° (NNE) 09:55:40 2401.200-2431.200
KKS-1 06 Dec 09:59:51 10:04:08 47° 260° (W) 10:08:29 437.445
SO-50 06 Dec 09:59:56 10:03:31 22° 46° (NE) 10:07:02 436.795
BEESAT 3 06 Dec 10:04:45 10:07:28 19° 111° (ESE) 10:10:14 437.485
STARS 06 Dec 10:05:54 10:10:20 88° 252° (WSW) 10:14:48 437.465
ITAMSAT 1 06 Dec 10:11:52 10:16:27 33° 292° (WNW) 10:21:01 435.822/435.867
YUBILEINY 06 Dec 10:18:07 10:22:19 14° 60° (ENE) 10:26:30 435.215
BRITE-PL 06 Dec 10:32:30 10:37:15 29° 95° (E) 10:42:07 437.365/2234.400
BEESAT 2 06 Dec 10:33:47 10:36:24 17° 110° (ESE) 10:39:04 435.950
HORYU 2 06 Dec 11:06:14 11:10:24 39° 99° (E) 11:14:31 437.375
CUBESAT XI-V 06 Dec 11:08:43 11:12:39 28° 264° (W) 11:16:38 437.345
PHONESAT 2.4 06 Dec 11:25:55 11:28:04 22° 207° (SSW) 11:30:13 2401.200-2431.200
Cosmos 2504 06 Dec 11:27:35 11:33:32 20° 63° (ENE) 11:39:16 435.465 / 435.565
STRAND 1 06 Dec 11:30:03 11:33:38 19° 64° (ENE) 11:37:13 437.568
AO-7 06 Dec 11:39:45 11:46:25 28° 304° (WNW) 11:53:05 29.400- 29.500
SO-50 06 Dec 11:39:53 11:44:08 42° 244° (WSW) 11:48:19 436.795
BEESAT 3 06 Dec 11:41:16 11:44:50 34° 307° (NW) 11:48:28 437.485
CUTE-I 06 Dec 11:45:11 11:49:49 30° 96° (E) 11:54:25 437.470
GOMX 1 06 Dec 11:46:30 11:51:57 64° 100° (E) 11:57:23 467.674
RS-15 06 Dec 11:50:25 11:59:25 27° 101° (E) 12:08:42 29.354- 29.394
NOAA 18 06 Dec 11:54:20 11:58:38 23° 94° (E) 12:02:52 137.9125
DOVE 4 06 Dec 11:57:40 12:02:29 34° 96° (E) 12:07:07 437.250
LilacSat-2 06 Dec 11:58:36 12:02:12 41° 99° (E) 12:05:45 437.200
NOAA 15 06 Dec 12:07:43 12:12:54 54° 101° (E) 12:18:03 137.62
BEESAT 2 06 Dec 12:10:13 12:13:54 37° 307° (NW) 12:17:37 435.950
Cubesat XI-IV 06 Dec 12:10:44 12:15:56 51° 100° (E) 12:21:06 437.490
BRITE-PL 06 Dec 12:10:44 12:15:40 37° 290° (WNW) 12:20:49 437.365/2234.400
YUBILEINY 06 Dec 12:11:56 12:20:48 74° 81° (E) 12:29:37 435.215
HO-68 06 Dec 12:13:47 12:15:05 10° 87° (E) 12:16:23 435.675
Cosmos 2491 06 Dec 12:38:02 12:46:36 59° 91° (E) 12:55:07 435.465 / 435.565
HORYU 2 06 Dec 12:43:34 12:46:38 19° 294° (WNW) 12:49:43 437.375
AIST 1 06 Dec 12:49:59 12:54:24 68° 82° (E) 12:58:46
AIST 2 06 Dec 13:00:58 13:03:35 17° 110° (ESE) 13:06:14 435.215
STRAND 1 06 Dec 13:07:26 13:12:24 50° 260° (W) 13:17:24 437.568
CINEMA 3 06 Dec 13:16:08 13:20:49 51° 98° (E) 13:25:17 145.822/145.860
Cosmos 2504 06 Dec 13:19:18 13:28:09 87° 264° (W) 13:36:25 435.465 / 435.565
CUTE 1.7 + AOD 2 06 Dec 13:23:16 13:27:08 34° 97° (E) 13:30:58 437.475
CUTE-I 06 Dec 13:25:06 13:29:49 33° 292° (WNW) 13:34:30 437.470
GOMX 1 06 Dec 13:25:54 13:29:28 18° 296° (WNW) 13:33:02 467.674
NOAA 18 06 Dec 13:34:11 13:39:28 46° 290° (WNW) 13:44:41 137.9125
LilacSat-2 06 Dec 13:34:24 13:36:06 13° 294° (WNW) 13:37:49 437.200
CUBEBUG 2 06 Dec 13:34:51 13:37:53 18° 92° (E) 13:40:51 437.445
DOVE 4 06 Dec 13:35:29 13:39:59 29° 292° (WNW) 13:44:22 437.250
CANX-2 06 Dec 13:41:02 13:45:15 66° 102° (ESE) 13:49:26 2200.000
AAUSAT CUBESAT 2 06 Dec 13:47:04 13:50:17 21° 94° (E) 13:53:29 437.432
NOAA 15 06 Dec 13:48:36 13:52:14 19° 297° (WNW) 13:55:52 137.62
Cubesat XI-IV 06 Dec 13:51:47 13:55:36 20° 296° (WNW) 13:59:24 437.490
HO-68 06 Dec 13:56:40 14:03:53 73° 104° (ESE) 14:11:04 435.675
RS-15 06 Dec 13:58:41 14:10:27 81° 302° (WNW) 14:22:50 29.354- 29.394
PRISM 06 Dec 13:58:42 14:02:25 36° 71° (ENE) 14:06:10 437.425
Oscar 11 06 Dec 14:01:29 14:03:01 12° 91° (E) 14:04:34 145.826/435.025
SEEDS 06 Dec 14:06:20 14:10:32 75° 100° (E) 14:14:43 437.485
YUBILEINY 06 Dec 14:10:21 14:16:37 22° 280° (W) 14:22:54 435.215
UWE-3 06 Dec 14:16:29 14:20:23 33° 96° (E) 14:24:11 435.000/436.395/437.385
COMPASS 1 06 Dec 14:16:40 14:20:48 64° 101° (E) 14:24:55 437.405
UNISAT 6 06 Dec 14:33:11 14:36:42 21° 67° (ENE) 14:40:11 437.425
Cosmos 2491 06 Dec 14:36:31 14:43:53 29° 290° (WNW) 14:51:16 435.465 / 435.565
AIST 2 06 Dec 14:37:47 14:41:42 42° 306° (NW) 14:45:40 435.215
DELFI C3 06 Dec 14:46:10 14:47:50 12° 92° (E) 14:49:30 145.870
CINEMA 3 06 Dec 14:54:29 14:57:27 17° 296° (WNW) 15:00:21 145.822/145.860
ZACube-1 06 Dec 14:57:09 15:01:20 59° 100° (E) 15:05:26 437.345
CUTE 1.7 + AOD 2 06 Dec 14:59:45 15:02:43 19° 293° (WNW) 15:05:41 437.475
TIGRISAT 06 Dec 15:02:09 15:06:30 39° 71° (ENE) 15:10:49 435.000
ANTELSAT 06 Dec 15:03:34 15:07:59 43° 72° (ENE) 15:12:23 437.575/2403.000
FUNcube-1 06 Dec 15:04:46 15:08:58 67° 100° (E) 15:13:05 145.935
CUBEBUG 2 06 Dec 15:10:37 15:14:38 35° 289° (WNW) 15:18:31 437.445
Cosmos 2504 06 Dec 15:15:20 15:20:04 16° 284° (WNW) 15:24:41 435.465 / 435.565
CANX-2 06 Dec 15:19:40 15:20:31 11° 297° (WNW) 15:21:23 2200.000
AAUSAT CUBESAT 2 06 Dec 15:22:11 15:25:44 28° 289° (WNW) 15:29:17 437.432
PRISM 06 Dec 15:35:15 15:37:50 16° 266° (W) 15:40:26 437.425
Oscar 11 06 Dec 15:35:16 15:39:28 55° 286° (WNW) 15:43:40 145.826/435.025
CUSAT 1 06 Dec 15:35:57 15:39:13 61° 280° (W) 15:41:57 437.405
AO-85 06 Dec 15:43:57 15:46:23 15° 44° (NE) 15:48:46 145.980
HO-68 06 Dec 15:45:41 15:50:53 22° 302° (WNW) 15:56:06 435.675
JAS-2 06 Dec 15:48:24 15:53:56 31° 68° (ENE) 15:58:57 435.910
POPSAT HIP 1 06 Dec 15:51:12 15:53:33 15° 65° (ENE) 15:55:54 437.405
UWE-3 06 Dec 15:53:31 15:56:36 19° 293° (WNW) 15:59:38 435.000/436.395/437.385
COMPASS 1 06 Dec 15:54:53 15:55:47 11° 296° (WNW) 15:56:40 437.405
PCSat 06 Dec 16:01:54 16:04:41 14° 103° (ESE) 16:07:27 145.827
UNISAT 6 06 Dec 16:08:46 16:13:08 38° 262° (W) 16:17:29 437.425
RS-15 06 Dec 16:15:07 16:25:12 30° 329° (NNW) 16:35:36 29.354- 29.394
DELFI C3 06 Dec 16:19:03 16:22:52 45° 287° (WNW) 16:26:40 145.870
Cosmos 2499 06 Dec 16:19:31 16:25:48 22° 65° (ENE) 16:31:46 435.465 / 435.565
DANDE 06 Dec 16:21:52 16:26:44 82° 279° (W) 16:30:23 436.750
HUMSAT D 06 Dec 16:23:37 16:27:43 85° 284° (WNW) 16:31:47 437.325/437.525
BUGSAT 1 06 Dec 16:29:04 16:30:53 13° 64° (ENE) 16:32:44 437.445
ZACube-1 06 Dec 16:35:40 16:37:04 11° 297° (WNW) 16:38:27 437.345
TIGRISAT 06 Dec 16:39:50 16:43:16 20° 266° (W) 16:46:42 435.000
ANTELSAT 06 Dec 16:41:36 16:44:50 18° 267° (W) 16:48:03 437.575/2403.000
NANOSAT C BR1 06 Dec 16:43:36 16:47:45 52° 74° (ENE) 16:51:54 145.865
FUNcube-1 06 Dec 16:44:10 16:44:36 10° 298° (WNW) 16:45:02 145.935
QB50P2 06 Dec 16:49:32 16:53:47 72° 76° (ENE) 16:58:05 145.880/145.840
GONETS M04 06 Dec 16:49:46 16:57:22 32° 71° (ENE) 17:04:56
POLYITAN 1 06 Dec 16:50:04 16:54:20 68° 74° (ENE) 16:58:37 437.675
QB50P1 06 Dec 17:03:01 17:07:18 86° 261° (W) 17:11:36 145.935-145.965
DUCHIFAT 1 06 Dec 17:05:34 17:09:49 87° 82° (E) 17:14:07 145.980
SPROUT 06 Dec 17:20:02 17:21:56 13° 91° (E) 17:23:48 437.525
AO-85 06 Dec 17:23:16 17:27:04 48° 243° (WSW) 17:30:47 145.980
POPSAT HIP 1 06 Dec 17:24:45 17:28:54 48° 261° (W) 17:33:04 437.405
50 SAT 06 Dec 17:32:31 17:35:11 20° 95° (E) 17:37:51 437.505
JAS-2 06 Dec 17:32:50 17:38:53 38° 261° (W) 17:44:21 435.910
ESTCUBE 1 06 Dec 17:40:21 17:44:53 88° 105° (ESE) 17:49:25 437.505/2401.250
PCSat 06 Dec 17:42:00 17:47:23 72° 299° (WNW) 17:52:50 145.827
Oscar 19 06 Dec 17:42:16 17:46:07 22° 65° (ENE) 17:49:59 437.125/150
Gurwin Techsat 1B 06 Dec 17:42:50 17:44:34 12° 59° (ENE) 17:46:19 435.225
AISAT 06 Dec 17:46:02 17:50:17 41° 99° (E) 17:54:30 437.250
BUGSAT 1 06 Dec 18:01:36 18:05:44 56° 260° (W) 18:09:56 437.445
CUBEBUG 1 06 Dec 18:11:18 18:15:45 69° 285° (WNW) 18:20:09 437.445
Cosmos 2499 06 Dec 18:11:19 18:19:55 76° 266° (W) 18:27:50 435.465 / 435.565
NANOSAT C BR1 06 Dec 18:21:56 18:23:45 12° 269° (W) 18:25:35 145.865
VELOX 1 06 Dec 18:22:46 18:27:14 80° 286° (WNW) 18:31:42 145.980
BEESAT 3 06 Dec 18:23:23 18:24:27 11° 41° (NE) 18:25:31 437.485
JUGNU 06 Dec 18:23:51 18:25:12 11° 178° (S) 18:26:34 437.505
DX 1 06 Dec 18:35:09 18:39:33 73° 102° (ESE) 18:43:55 434.975-435.025
RS-15 06 Dec 18:35:13 18:43:37 20° 5° (N) 18:52:01 29.354- 29.394
TISAT 1 06 Dec 18:40:20 18:42:55 16° 93° (E) 18:45:28 437.305
UKube-1 06 Dec 18:41:45 18:46:04 64° 101° (E) 18:50:21 .
GONETS M04 06 Dec 18:46:07 18:54:29 54° 270° (W) 19:02:53
BEESAT 2 06 Dec 18:53:16 18:54:10 11° 41° (NE) 18:55:05 435.950
SPROUT 06 Dec 18:53:58 18:58:09 51° 286° (WNW) 19:02:17 437.525
AO-7 06 Dec 18:54:56 19:00:13 19° 51° (NE) 19:05:31 29.400- 29.500
50 SAT 06 Dec 19:05:36 19:08:24 22° 290° (WNW) 19:11:13 437.505
Gurwin Techsat 1B 06 Dec 19:18:22 19:23:42 89° 81° (E) 19:29:04 435.225
Oscar 19 06 Dec 19:20:16 19:25:07 43° 261° (W) 19:30:01 437.125/150
AISAT 06 Dec 19:23:23 19:26:24 18° 294° (WNW) 19:29:26 437.250
PCSat 06 Dec 19:29:29 19:31:46 13° 319° (NW) 19:34:04 145.827
AUBIESAT-1 06 Dec 19:42:08 19:43:15 11° 94° (E) 19:44:21 437.475
ITAMSAT 1 06 Dec 19:49:18 19:54:09 40° 70° (ENE) 19:59:00 435.822/435.867
M-CUBED/EXP-1 PRIME 06 Dec 19:52:48 19:56:07 19° 97° (E) 19:59:19 437.505
BEESAT 3 06 Dec 19:58:38 20:02:39 87° 241° (WSW) 20:06:37 437.485
Cosmos 2499 06 Dec 20:08:05 20:11:20 13° 286° (WNW) 20:14:30 435.465 / 435.565
DX 1 06 Dec 20:14:10 20:15:06 11° 298° (WNW) 20:16:03 434.975-435.025
TISAT 1 06 Dec 20:14:45 20:18:42 40° 288° (WNW) 20:22:38 437.305
SWISSCUBE 06 Dec 20:18:03 20:22:32 40° 99° (E) 20:27:00 437.505
UKube-1 06 Dec 20:19:57 20:21:32 12° 297° (WNW) 20:23:07 .
BEESAT 06 Dec 20:22:04 20:26:32 40° 98° (E) 20:30:59 436.000
BEESAT 2 06 Dec 20:28:32 20:32:35 88° 59° (ENE) 20:36:36 435.950
O/OREOS (USA 219) 06 Dec 20:38:40 20:40:29 12° 98° (E) 20:42:19 437.305
AO-7 06 Dec 20:43:28 20:51:45 83° 71° (ENE) 21:00:08 29.400- 29.500
ITUPSAT 1 06 Dec 20:49:47 20:54:34 77° 102° (ESE) 20:59:19 437.325
RS-15 06 Dec 20:49:59 21:01:16 38° 39° (NE) 21:12:16 29.354- 29.394
ISS 06 Dec 21:08:40 21:11:13 21° 132° (SE) 21:13:46 145.825
AUBIESAT-1 06 Dec 21:13:32 21:18:07 71° 290° (WNW) 21:22:29 437.475
AIST 2 06 Dec 21:23:23 21:24:48 11° 41° (NE) 21:26:13 435.215
MOZHAYETS 4 06 Dec 21:24:31 21:28:53 44° 99° (E) 21:33:14
M-CUBED/EXP-1 PRIME 06 Dec 21:26:18 21:30:43 43° 294° (WNW) 21:34:58 437.505
ITAMSAT 1 06 Dec 21:29:36 21:33:43 23° 265° (W) 21:37:52 435.822/435.867
BRITE-PL 06 Dec 21:43:21 21:46:47 23° 67° (ENE) 21:50:24 437.365/2234.400
KKS-1 06 Dec 21:51:46 21:55:52 34° 98° (E) 21:59:56 437.445
SRMSAT 06 Dec 21:51:50 21:52:55 10° 183° (S) 21:53:59 437.500
SWISSCUBE 06 Dec 21:56:34 22:00:02 20° 295° (WNW) 22:03:29 437.505
STARS 06 Dec 21:57:20 22:00:21 18° 93° (E) 22:03:20 437.465
BEESAT 06 Dec 22:00:31 22:04:02 21° 294° (WNW) 22:07:32 436.000
HORYU 2 06 Dec 22:03:07 22:07:06 33° 70° (ENE) 22:11:06 437.375
O/OREOS (USA 219) 06 Dec 22:14:49 22:19:20 59° 294° (WNW) 22:23:50 437.305
ITUPSAT 1 06 Dec 22:30:09 22:31:43 12° 299° (WNW) 22:33:17 437.325
AO-7 06 Dec 22:39:52 22:45:22 19° 268° (W) 22:50:55 29.400- 29.500
LilacSat-2 06 Dec 22:40:08 22:42:52 19° 69° (ENE) 22:45:35 437.200
ISS 06 Dec 22:44:25 22:47:32 39° 328° (NNW) 22:50:40 145.825
Cosmos 2491 06 Dec 22:50:17 22:57:26 27° 69° (ENE) 23:04:30 435.465 / 435.565
GOMX 1 06 Dec 22:53:34 22:58:00 55° 73° (ENE) 23:02:48 467.674
AIST 2 06 Dec 22:59:40 23:03:55 88° 58° (ENE) 23:08:08 435.215
DOVE 4 06 Dec 23:01:54 23:06:01 29° 68° (ENE) 23:10:21 437.250
RS-15 06 Dec 23:02:39 23:14:58 76° 244° (WSW) 23:26:49 29.354- 29.394
MOZHAYETS 4 06 Dec 23:02:41 23:05:41 18° 294° (WNW) 23:08:40
CUBESAT XI-V 06 Dec 23:05:15 23:09:55 76° 102° (ESE) 23:14:36 437.345
CUTE-I 06 Dec 23:05:44 23:10:48 44° 71° (ENE) 23:15:54 437.470
NOAA 18 06 Dec 23:19:12 23:24:19 40° 68° (ENE) 23:29:27 137.9125
YUBILEINY 06 Dec 23:19:45 23:24:20 16° 76° (ENE) 23:28:55 435.215
BRITE-PL 06 Dec 23:21:26 23:25:09 29° 265° (W) 23:29:05 437.365/2234.400
NOAA 15 06 Dec 23:26:42 23:31:55 78° 74° (ENE) 23:37:11 137.62
KKS-1 06 Dec 23:28:48 23:32:12 21° 293° (WNW) 23:35:34 437.445
Cubesat XI-IV 06 Dec 23:31:32 23:36:53 76° 74° (ENE) 23:42:17 437.490
STARS 06 Dec 23:32:43 23:36:50 39° 289° (WNW) 23:40:54 437.465
HORYU 2 06 Dec 23:40:11 23:43:40 22° 265° (W) 23:47:09 437.375
Cosmos 2504 07 Dec 00:06:53 00:11:09 15° 75° (ENE) 00:15:29 435.465 / 435.565
LilacSat-2 07 Dec 00:13:35 00:16:57 28° 264° (W) 00:20:19 437.200
CUTE 1.7 + AOD 2 07 Dec 00:15:18 00:18:32 22° 69° (ENE) 00:21:46 437.475
CINEMA 3 07 Dec 00:15:51 00:20:29 42° 71° (ENE) 00:25:12 145.822/145.860
ISS 07 Dec 00:23:19 00:24:45 12° 347° (NNW) 00:26:11 145.825
HO-68 07 Dec 00:23:54 00:30:42 49° 67° (ENE) 00:37:31 435.675
CUBEBUG 2 07 Dec 00:31:59 00:34:55 16° 65° (ENE) 00:37:49 437.445
CANX-2 07 Dec 00:32:37 00:36:33 39° 72° (ENE) 00:40:29 2200.000
GOMX 1 07 Dec 00:34:10 00:36:33 14° 271° (W) 00:39:00 467.674
AAUSAT CUBESAT 2 07 Dec 00:37:31 00:39:27 13° 65° (ENE) 00:41:22 437.432
DOVE 4 07 Dec 00:39:26 00:43:36 30° 266° (W) 00:47:59 437.250
CUBESAT XI-V 07 Dec 00:45:13 00:46:39 11° 298° (WNW) 00:48:05 437.345
Cosmos 2491 07 Dec 00:46:16 00:54:50 63° 268° (W) 01:03:22 435.465 / 435.565
CUTE-I 07 Dec 00:46:55 00:51:02 22° 266° (W) 00:55:09 437.470
PCSat 07 Dec 00:49:39 00:51:56 13° 41° (NE) 00:54:13 145.827
SEEDS 07 Dec 00:56:47 01:00:43 42° 73° (ENE) 01:04:40 437.485
NOAA 18 07 Dec 01:00:26 01:05:02 27° 264° (W) 01:09:40 137.9125
COMPASS 1 07 Dec 01:06:14 01:10:01 36° 72° (ENE) 01:13:47 437.405
NOAA 15 07 Dec 01:10:30 01:12:14 12° 270° (W) 01:14:01 137.62
